Time,TemperatureF,DewpointF,PressureIn,WindDirection,WindDirectionDegrees,WindSpeedMPH,WindSpeedGustMPH,Humidity,HourlyPrecipIn,Conditions,Clouds,dailyrainin,SoftwareType,DateUTC
2013-01-16 00:00:00,31.6,29.0,30.46,NNE,22,0.0,0.0,90,0.00,,,0.00,LWC V2.11 B50,2013-01-16 08:00:00,
2013-01-16 00:05:00,48.8,43.8,29.80,ESE,116,0.0,0.6,85,0.00,,,0.00,WeatherCatV1.15B25,2013-01-16 08:05:00,
2013-01-16 00:10:00,31.6,29.0,30.46,NNE,22,0.0,0.0,90,0.00,,,0.00,LWC V2.11 B50,2013-01-16 08:10:00,
2013-01-16 00:15:00,48.8,43.8,29.80,ESE,116,0.0,0.6,85,0.00,,,0.00,WeatherCatV1.15B25,2013-01-16 08:15:00,
2013-01-16 00:20:00,31.6,29.0,30.46,NNE,22,0.0,0.0,90,0.00,,,0.00,LWC V2.11 B50,2013-01-16 08:20:00,
2013-01-16 00:25:00,48.8,43.8,29.80,ESE,116,0.0,0.6,85,0.00,,,0.00,WeatherCatV1.15B25,2013-01-16 08:25:00,
2013-01-16 00:30:00,31.6,29.0,30.46,NNE,22,0.0,0.0,90,0.00,,,0.00,LWC V2.11 B50,2013-01-16 08:30:00,
2013-01-16 00:35:00,48.8,43.8,29.80,ESE,116,0.0,0.6,85,0.00,,,0.00,WeatherCatV1.15B25,2013-01-16 08:35:00,
2013-01-16 00:40:00,31.6,29.0,30.46,NNE,22,0.0,0.0,90,0.00,,,0.00,LWC V2.11 B50,2013-01-16 08:40:00,
2013-01-16 00:45:00,48.8,43.8,29.80,ESE,116,0.0,0.6,85,0.00,,,0.00,WeatherCatV1.15B25,2013-01-16 08:45:00,
2013-01-16 00:50:00,31.6,29.0,30.46,NNE,22,0.0,0.0,90,0.00,,,0.00,LWC V2.11 B50,2013-01-16 08:50:00,
2013-01-16 00:55:00,48.8,43.8,29.80,ESE,116,0.0,0.6,85,0.00,,,0.00,WeatherCatV1.15B25,2013-01-16 08:55:00,
2013-01-16 01:00:00,31.8,28.9,30.46,NNE,22,0.0,0.0,89,0.00,,,0.00,LWC V2.11 B50,2013-01-16 09:00:00,
2013-01-16 01:05:00,48.8,43.8,29.80,ESE,116,0.0,0.6,85,0.00,,,0.00,WeatherCatV1.15B25,2013-01-16 09:05:00,
2013-01-16 01:10:00,31.8,28.9,30.46,NNE,22,0.0,0.0,89,0.00,,,0.00,LWC V2.11 B50,2013-01-16 09:10:00,
2013-01-16 01:15:00,48.8,43.8,29.80,ESE,116,0.0,0.6,85,0.00,,,0.00,WeatherCatV1.15B25,2013-01-16 09:15:00,
2013-01-16 01:20:00,31.8,28.9,30.46,NNE,22,0.0,0.0,89,0.00,,,0.00,LWC V2.11 B50,2013-01-16 09:20:00,
2013-01-16 01:25:00,48.8,43.8,29.80,ESE,116,0.0,0.6,85,0.00,,,0.00,WeatherCatV1.15B25,2013-01-16 09:25:00,
2013-01-16 01:30:00,31.8,28.9,30.46,NNE,22,0.0,0.0,89,0.00,,,0.00,LWC V2.11 B50,2013-01-16 09:30:00,
2013-01-16 01:35:00,48.8,43.8,29.80,ESE,116,0.0,0.6,85,0.00,,,0.00,WeatherCatV1.15B25,2013-01-16 09:35:00,
2013-01-16 01:40:00,31.8,28.9,30.46,NNE,22,0.0,0.0,89,0.00,,,0.00,LWC V2.11 B50,2013-01-16 09:40:00,
2013-01-16 01:45:00,48.8,43.8,29.80,ESE,116,0.0,0.6,85,0.00,,,0.00,WeatherCatV1.15B25,2013-01-16 09:45:00,
2013-01-16 01:50:00,31.8,28.9,30.46,NNE,22,0.0,0.0,89,0.00,,,0.00,LWC V2.11 B50,2013-01-16 09:50:00,
2013-01-16 01:55:00,48.8,43.8,29.80,ESE,116,0.0,0.6,85,0.00,,,0.00,WeatherCatV1.15B25,2013-01-16 09:55:00,
2013-01-16 02:00:00,31.8,28.9,30.46,NNE,22,0.0,0.0,89,0.00,,,0.00,LWC V2.11 B50,2013-01-16 10:00:00,
2013-01-16 02:05:00,48.8,43.8,29.80,ESE,116,0.0,0.6,85,0.00,,,0.00,WeatherCatV1.15B25,2013-01-16 10:05:00,
2013-01-16 02:10:00,32.0,28.9,30.46,NNE,22,0.0,0.0,88,0.00,,,0.00,LWC V2.11 B50,2013-01-16 10:10:00,
2013-01-16 02:15:00,48.8,43.8,29.80,ESE,116,0.0,0.6,85,0.00,,,0.00,WeatherCatV1.15B25,2013-01-16 10:15:00,
2013-01-16 02:20:00,32.0,28.9,30.46,NNE,22,0.0,0.0,88,0.00,,,0.00,LWC V2.11 B50,2013-01-16 10:20:00,
2013-01-16 02:25:00,48.8,43.8,29.80,ESE,116,0.0,0.6,85,0.00,,,0.00,WeatherCatV1.15B25,2013-01-16 10:25:00,
2013-01-16 02:30:00,32.0,28.9,30.46,NNE,22,0.0,0.0,88,0.00,,,0.00,LWC V2.11 B50,2013-01-16 10:30:00,
2013-01-16 02:35:00,48.8,43.8,29.80,ESE,116,0.0,0.6,85,0.00,,,0.00,WeatherCatV1.15B25,2013-01-16 10:35:00,
2013-01-16 02:40:00,32.0,28.9,30.46,NNE,22,0.0,0.0,88,0.00,,,0.00,LWC V2.11 B50,2013-01-16 10:40:00,
2013-01-16 02:45:00,48.8,43.8,29.80,ESE,116,0.0,0.6,85,0.00,,,0.00,WeatherCatV1.15B25,2013-01-16 10:45:00,
2013-01-16 02:50:00,32.0,28.9,30.46,NNE,22,0.0,0.0,88,0.00,,,0.00,LWC V2.11 B50,2013-01-16 10:50:00,
2013-01-16 02:55:00,48.8,43.8,29.80,ESE,116,0.0,0.6,85,0.00,,,0.00,WeatherCatV1.15B25,2013-01-16 10:55:00,
2013-01-16 03:00:00,32.9,27.7,30.46,NNE,22,0.0,0.0,81,0.00,,,0.00,LWC V2.11 B50,2013-01-16 11:00:00,
2013-01-16 03:05:00,48.8,43.8,29.80,ESE,116,0.0,0.6,85,0.00,,,0.00,WeatherCatV1.15B25,2013-01-16 11:05:00,
2013-01-16 03:10:00,32.9,27.7,30.46,NNE,22,0.0,0.0,81,0.00,,,0.00,LWC V2.11 B50,2013-01-16 11:10:00,
2013-01-16 03:15:00,48.8,43.8,29.80,ESE,116,0.0,0.6,85,0.00,,,0.00,WeatherCatV1.15B25,2013-01-16 11:15:00,
2013-01-16 03:20:00,32.9,27.7,30.46,NNE,22,0.0,0.0,81,0.00,,,0.00,LWC V2.11 B50,2013-01-16 11:20:00,
2013-01-16 03:25:00,48.8,43.8,29.80,ESE,116,0.0,0.6,85,0.00,,,0.00,WeatherCatV1.15B25,2013-01-16 11:25:00,
2013-01-16 03:30:00,32.9,27.7,30.46,NNE,22,0.0,0.0,81,0.00,,,0.00,LWC V2.11 B50,2013-01-16 11:30:00,
2013-01-16 03:35:00,48.8,43.8,29.80,ESE,116,0.0,0.6,85,0.00,,,0.00,WeatherCatV1.15B25,2013-01-16 11:35:00,
2013-01-16 03:40:00,32.9,27.7,30.46,NNE,22,0.0,0.0,81,0.00,,,0.00,LWC V2.11 B50,2013-01-16 11:40:00,
2013-01-16 03:45:00,48.8,43.8,29.80,ESE,116,0.0,0.6,85,0.00,,,0.00,WeatherCatV1.15B25,2013-01-16 11:45:00,
2013-01-16 03:50:00,32.9,27.7,30.46,NNE,22,0.0,0.0,81,0.00,,,0.00,LWC V2.11 B50,2013-01-16 11:50:00,
2013-01-16 03:55:00,48.8,43.8,29.80,ESE,116,0.0,0.6,85,0.00,,,0.00,WeatherCatV1.15B25,2013-01-16 11:55:00,
2013-01-16 04:00:00,32.4,26.9,30.45,NNE,22,0.0,0.0,80,0.00,,,0.00,LWC V2.11 B50,2013-01-16 12:00:00,
2013-01-16 04:05:00,48.8,43.8,29.80,ESE,116,0.0,0.6,85,0.00,,,0.00,WeatherCatV1.15B25,2013-01-16 12:05:00,
2013-01-16 04:10:00,32.4,26.9,30.45,NNE,22,0.0,0.0,80,0.00,,,0.00,LWC V2.11 B50,2013-01-16 12:10:00,
2013-01-16 04:15:00,48.8,43.8,29.80,ESE,116,0.0,0.6,85,0.00,,,0.00,WeatherCatV1.15B25,2013-01-16 12:15:00,
2013-01-16 04:20:00,32.4,26.9,30.45,NNE,22,0.0,0.0,80,0.00,,,0.00,LWC V2.11 B50,2013-01-16 12:20:00,
2013-01-16 04:25:00,48.8,43.8,29.80,ESE,116,0.0,0.6,85,0.00,,,0.00,WeatherCatV1.15B25,2013-01-16 12:25:00,
2013-01-16 04:30:00,32.4,26.9,30.45,NNE,22,0.0,0.0,80,0.00,,,0.00,LWC V2.11 B50,2013-01-16 12:30:00,
2013-01-16 04:35:00,48.8,43.8,29.80,ESE,116,0.0,0.6,85,0.00,,,0.00,WeatherCatV1.15B25,2013-01-16 12:35:00,
2013-01-16 04:40:00,32.4,26.9,30.45,NNE,22,0.0,0.0,80,0.00,,,0.00,LWC V2.11 B50,2013-01-16 12:40:00,
2013-01-16 04:45:00,48.8,43.8,29.80,ESE,116,0.0,0.6,85,0.00,,,0.00,WeatherCatV1.15B25,2013-01-16 12:45:00,
2013-01-16 04:50:00,32.4,26.9,30.45,NNE,22,0.0,0.0,80,0.00,,,0.00,LWC V2.11 B50,2013-01-16 12:50:00,
2013-01-16 04:55:00,48.8,43.8,29.80,ESE,116,0.0,0.6,85,0.00,,,0.00,WeatherCatV1.15B25,2013-01-16 12:55:00,
2013-01-16 05:00:00,32.4,26.9,30.45,NNE,22,0.0,0.0,80,0.00,,,0.00,LWC V2.11 B50,2013-01-16 13:00:00,
2013-01-16 05:05:00,48.8,43.8,29.80,ESE,116,0.0,0.6,85,0.00,,,0.00,WeatherCatV1.15B25,2013-01-16 13:05:00,
2013-01-16 05:10:00,31.8,25.1,30.44,NNE,22,0.0,0.0,76,0.00,,,0.00,LWC V2.11 B50,2013-01-16 13:10:00,
2013-01-16 05:15:00,48.8,43.8,29.80,ESE,116,0.0,0.6,85,0.00,,,0.00,WeatherCatV1.15B25,2013-01-16 13:15:00,
2013-01-16 05:20:00,31.8,25.1,30.44,NNE,22,0.0,0.0,76,0.00,,,0.00,LWC V2.11 B50,2013-01-16 13:20:00,
2013-01-16 05:25:00,48.8,43.8,29.80,ESE,116,0.0,0.6,85,0.00,,,0.00,WeatherCatV1.15B25,2013-01-16 13:25:00,
2013-01-16 05:30:00,31.8,25.1,30.44,NNE,22,0.0,0.0,76,0.00,,,0.00,LWC V2.11 B50,2013-01-16 13:30:00,
2013-01-16 05:35:00,48.8,43.8,29.80,ESE,116,0.0,0.6,85,0.00,,,0.00,WeatherCatV1.15B25,2013-01-16 13:35:00,
2013-01-16 05:40:00,31.8,25.1,30.44,NNE,22,0.0,0.0,76,0.00,,,0.00,LWC V2.11 B50,2013-01-16 13:40:00,
2013-01-16 05:45:00,48.8,43.8,29.80,ESE,116,0.0,0.6,85,0.00,,,0.00,WeatherCatV1.15B25,2013-01-16 13:45:00,
2013-01-16 05:50:00,31.8,25.1,30.44,NNE,22,0.0,0.0,76,0.00,,,0.00,LWC V2.11 B50,2013-01-16 13:50:00,
2013-01-16 05:55:00,48.8,43.8,29.80,ESE,116,0.0,0.6,85,0.00,,,0.00,WeatherCatV1.15B25,2013-01-16 13:55:00,
2013-01-16 06:00:00,31.8,25.1,30.44,NNE,22,0.0,0.0,76,0.00,,,0.00,LWC V2.11 B50,2013-01-16 14:00:00,
2013-01-16 06:05:00,48.8,43.8,29.80,ESE,116,0.0,0.6,85,0.00,,,0.00,WeatherCatV1.15B25,2013-01-16 14:05:00,
2013-01-16 06:10:00,31.7,25.0,30.43,NNE,22,0.0,0.0,76,0.00,,,0.00,LWC V2.11 B50,2013-01-16 14:10:00,
2013-01-16 06:15:00,48.8,43.8,29.80,ESE,116,0.0,0.6,85,0.00,,,0.00,WeatherCatV1.15B25,2013-01-16 14:15:00,
2013-01-16 06:20:00,31.7,25.0,30.43,NNE,22,0.0,0.0,76,0.00,,,0.00,LWC V2.11 B50,2013-01-16 14:20:00,
2013-01-16 06:25:00,48.8,43.8,29.80,ESE,116,0.0,0.6,85,0.00,,,0.00,WeatherCatV1.15B25,2013-01-16 14:25:00,
2013-01-16 06:30:00,31.7,25.0,30.43,NNE,22,0.0,0.0,76,0.00,,,0.00,LWC V2.11 B50,2013-01-16 14:30:00,
2013-01-16 06:35:00,48.7,43.8,29.80,ESE,116,0.0,0.6,85,0.00,,,0.00,WeatherCatV1.15B25,2013-01-16 14:35:00,
2013-01-16 06:40:00,31.7,25.0,30.43,NNE,22,0.0,0.0,76,0.00,,,0.00,LWC V2.11 B50,2013-01-16 14:40:00,
2013-01-16 06:45:00,48.7,43.8,29.80,ESE,116,0.0,0.6,85,0.00,,,0.00,WeatherCatV1.15B25,2013-01-16 14:45:00,
2013-01-16 06:50:00,48.7,43.8,29.80,ESE,116,0.0,0.6,85,0.00,,,0.00,WeatherCatV1.15B25,2013-01-16 14:50:00,
2013-01-16 06:55:00,48.7,43.8,29.80,ESE,116,0.0,0.6,85,0.00,,,0.00,WeatherCatV1.15B25,2013-01-16 14:55:00,
2013-01-16 06:58:00,32.8,24.8,30.43,NE,48,0.0,0.0,72,0.00,,,0.00,LWC V2.11 B50,2013-01-16 14:58:00,
2013-01-16 07:00:00,32.6,24.9,30.43,NNE,22,0.0,0.0,73,0.00,,,0.00,LWC V2.11 B50,2013-01-16 15:00:00,
2013-01-16 07:05:00,48.7,43.8,29.80,ESE,116,0.0,0.6,85,0.00,,,0.00,WeatherCatV1.15B25,2013-01-16 15:05:00,
2013-01-16 07:10:00,32.6,24.9,30.43,NNE,22,0.0,0.0,73,0.00,,,0.00,LWC V2.11 B50,2013-01-16 15:10:00,
2013-01-16 07:15:00,48.7,43.8,29.80,ESE,116,0.0,0.6,85,0.00,,,0.00,WeatherCatV1.15B25,2013-01-16 15:15:00,
2013-01-16 07:20:00,32.6,24.9,30.43,NNE,22,0.0,0.0,73,0.00,,,0.00,LWC V2.11 B50,2013-01-16 15:20:00,
2013-01-16 07:25:00,48.7,43.8,29.80,ESE,116,0.0,0.6,85,0.00,,,0.00,WeatherCatV1.15B25,2013-01-16 15:25:00,
2013-01-16 07:30:00,32.6,24.9,30.43,NNE,22,0.0,0.0,73,0.00,,,0.00,LWC V2.11 B50,2013-01-16 15:30:00,
2013-01-16 07:35:00,48.7,43.8,29.80,ESE,116,0.0,0.6,85,0.00,,,0.00,WeatherCatV1.15B25,2013-01-16 15:35:00,
2013-01-16 07:40:00,32.6,24.9,30.43,NNE,22,0.0,0.0,73,0.00,,,0.00,LWC V2.11 B50,2013-01-16 15:40:00,
2013-01-16 07:45:00,48.7,43.8,29.80,ESE,116,0.0,0.6,85,0.00,,,0.00,WeatherCatV1.15B25,2013-01-16 15:45:00,
2013-01-16 07:50:00,32.6,24.9,30.43,NNE,22,0.0,0.0,73,0.00,,,0.00,LWC V2.11 B50,2013-01-16 15:50:00,
2013-01-16 07:55:00,48.7,43.8,29.80,ESE,116,0.0,0.6,85,0.00,,,0.00,WeatherCatV1.15B25,2013-01-16 15:55:00,
2013-01-16 08:00:00,32.6,24.9,30.43,NNE,22,0.0,0.0,73,0.00,,,0.00,LWC V2.11 B50,2013-01-16 16:00:00,
2013-01-16 08:05:00,48.7,43.8,29.80,ESE,116,0.0,0.6,85,0.00,,,0.00,WeatherCatV1.15B25,2013-01-16 16:05:00,
2013-01-16 08:10:00,32.0,25.0,30.44,NNE,22,0.0,0.0,75,0.00,,,0.00,LWC V2.11 B50,2013-01-16 16:10:00,
2013-01-16 08:15:00,48.7,43.8,29.80,ESE,116,0.0,0.6,85,0.00,,,0.00,WeatherCatV1.15B25,2013-01-16 16:15:00,
2013-01-16 08:20:00,32.0,25.0,30.44,NNE,22,0.0,0.0,75,0.00,,,0.00,LWC V2.11 B50,2013-01-16 16:20:00,
2013-01-16 08:25:00,48.7,43.8,29.80,ESE,116,0.0,0.6,85,0.00,,,0.00,WeatherCatV1.15B25,2013-01-16 16:25:00,
2013-01-16 08:30:00,32.0,25.0,30.44,NNE,22,0.0,0.0,75,0.00,,,0.00,LWC V2.11 B50,2013-01-16 16:30:00,
2013-01-16 08:35:00,48.7,43.8,29.80,ESE,116,0.0,0.6,85,0.00,,,0.00,WeatherCatV1.15B25,2013-01-16 16:35:00,
2013-01-16 08:40:00,32.0,25.0,30.44,NNE,22,0.0,0.0,75,0.00,,,0.00,LWC V2.11 B50,2013-01-16 16:40:00,
2013-01-16 08:45:00,48.7,43.8,29.80,ESE,116,0.0,0.6,85,0.00,,,0.00,WeatherCatV1.15B25,2013-01-16 16:45:00,
2013-01-16 08:50:00,32.0,25.0,30.44,NNE,22,0.0,0.0,75,0.00,,,0.00,LWC V2.11 B50,2013-01-16 16:50:00,
2013-01-16 08:55:00,48.7,43.8,29.80,ESE,116,0.0,0.6,85,0.00,,,0.00,WeatherCatV1.15B25,2013-01-16 16:55:00,
2013-01-16 09:00:00,32.0,25.0,30.44,NNE,22,0.0,0.0,75,0.00,,,0.00,LWC V2.11 B50,2013-01-16 17:00:00,
2013-01-16 09:05:00,48.7,43.8,29.80,ESE,116,0.0,0.6,85,0.00,,,0.00,WeatherCatV1.15B25,2013-01-16 17:05:00,
2013-01-16 09:10:00,36.7,26.4,30.46,NNE,22,0.0,0.0,66,0.00,,,0.00,LWC V2.11 B50,2013-01-16 17:10:00,
2013-01-16 09:15:00,48.7,43.8,29.80,ESE,116,0.0,0.6,85,0.00,,,0.00,WeatherCatV1.15B25,2013-01-16 17:15:00,
2013-01-16 09:20:00,36.7,26.4,30.46,NNE,22,0.0,0.0,66,0.00,,,0.00,LWC V2.11 B50,2013-01-16 17:20:00,
2013-01-16 09:25:00,48.7,43.8,29.80,ESE,116,0.0,0.6,85,0.00,,,0.00,WeatherCatV1.15B25,2013-01-16 17:25:00,
2013-01-16 09:30:00,36.7,26.4,30.46,NNE,22,0.0,0.0,66,0.00,,,0.00,LWC V2.11 B50,2013-01-16 17:30:00,
2013-01-16 09:35:00,48.7,43.8,29.80,ESE,116,0.0,0.6,85,0.00,,,0.00,WeatherCatV1.15B25,2013-01-16 17:35:00,
2013-01-16 09:40:00,36.7,26.4,30.46,NNE,22,0.0,0.0,66,0.00,,,0.00,LWC V2.11 B50,2013-01-16 17:40:00,
2013-01-16 09:45:00,48.7,43.8,29.80,ESE,116,0.0,0.6,85,0.00,,,0.00,WeatherCatV1.15B25,2013-01-16 17:45:00,
2013-01-16 09:50:00,36.7,26.4,30.46,NNE,22,0.0,0.0,66,0.00,,,0.00,LWC V2.11 B50,2013-01-16 17:50:00,
2013-01-16 09:55:00,48.7,43.8,29.80,ESE,116,0.0,0.6,85,0.00,,,0.00,WeatherCatV1.15B25,2013-01-16 17:55:00,
2013-01-16 10:00:00,36.7,26.4,30.46,NNE,22,0.0,0.0,66,0.00,,,0.00,LWC V2.11 B50,2013-01-16 18:00:00,
2013-01-16 10:05:00,48.7,43.8,29.80,ESE,116,0.0,0.6,85,0.00,,,0.00,WeatherCatV1.15B25,2013-01-16 18:05:00,
2013-01-16 10:10:00,43.4,27.4,30.46,NNE,22,0.0,0.0,53,0.00,,,0.00,LWC V2.11 B50,2013-01-16 18:10:00,
2013-01-16 10:15:00,48.7,43.8,29.80,ESE,116,0.0,0.6,85,0.00,,,0.00,WeatherCatV1.15B25,2013-01-16 18:15:00,
2013-01-16 10:20:00,43.4,27.4,30.46,NNE,22,0.0,0.0,53,0.00,,,0.00,LWC V2.11 B50,2013-01-16 18:20:00,
2013-01-16 10:25:00,48.7,43.8,29.80,ESE,116,0.0,0.6,85,0.00,,,0.00,WeatherCatV1.15B25,2013-01-16 18:25:00,
2013-01-16 10:30:00,43.4,27.4,30.46,NNE,22,0.0,0.0,53,0.00,,,0.00,LWC V2.11 B50,2013-01-16 18:30:00,
2013-01-16 10:35:00,48.7,43.8,29.80,ESE,116,0.0,0.6,85,0.00,,,0.00,WeatherCatV1.15B25,2013-01-16 18:35:00,
2013-01-16 10:40:00,43.4,27.4,30.46,NNE,22,0.0,0.0,53,0.00,,,0.00,LWC V2.11 B50,2013-01-16 18:40:00,
2013-01-16 10:45:00,48.7,43.8,29.80,ESE,116,0.0,0.6,85,0.00,,,0.00,WeatherCatV1.15B25,2013-01-16 18:45:00,
2013-01-16 10:50:00,43.4,27.4,30.46,NNE,22,0.0,0.0,53,0.00,,,0.00,LWC V2.11 B50,2013-01-16 18:50:00,
2013-01-16 10:55:00,48.7,43.8,29.80,ESE,116,0.0,0.6,85,0.00,,,0.00,WeatherCatV1.15B25,2013-01-16 18:55:00,
2013-01-16 11:00:00,43.4,27.4,30.46,NNE,22,0.0,0.0,53,0.00,,,0.00,LWC V2.11 B50,2013-01-16 19:00:00,
2013-01-16 11:05:00,48.7,43.8,29.80,ESE,116,0.0,0.6,85,0.00,,,0.00,WeatherCatV1.15B25,2013-01-16 19:05:00,
2013-01-16 11:10:00,49.1,24.0,30.43,NNE,22,0.0,0.0,37,0.00,,,0.00,LWC V2.11 B50,2013-01-16 19:10:00,
2013-01-16 11:15:00,48.7,43.8,29.80,ESE,116,0.0,0.6,85,0.00,,,0.00,WeatherCatV1.15B25,2013-01-16 19:15:00,
2013-01-16 11:20:00,49.1,24.0,30.43,NNE,22,0.0,0.0,37,0.00,,,0.00,LWC V2.11 B50,2013-01-16 19:20:00,
2013-01-16 11:25:00,48.7,43.8,29.80,ESE,116,0.0,0.6,85,0.00,,,0.00,WeatherCatV1.15B25,2013-01-16 19:25:00,
2013-01-16 11:30:00,49.1,24.0,30.43,NNE,22,0.0,0.0,37,0.00,,,0.00,LWC V2.11 B50,2013-01-16 19:30:00,
2013-01-16 11:35:00,48.7,43.8,29.80,ESE,116,0.0,0.6,85,0.00,,,0.00,WeatherCatV1.15B25,2013-01-16 19:35:00,
2013-01-16 11:40:00,49.1,24.0,30.43,NNE,22,0.0,0.0,37,0.00,,,0.00,LWC V2.11 B50,2013-01-16 19:40:00,
2013-01-16 11:45:00,48.7,43.8,29.80,ESE,116,0.0,0.6,85,0.00,,,0.00,WeatherCatV1.15B25,2013-01-16 19:45:00,
2013-01-16 11:50:00,49.1,24.0,30.43,NNE,22,0.0,0.0,37,0.00,,,0.00,LWC V2.11 B50,2013-01-16 19:50:00,
2013-01-16 11:55:00,48.7,43.8,29.80,ESE,116,0.0,0.6,85,0.00,,,0.00,WeatherCatV1.15B25,2013-01-16 19:55:00,
2013-01-16 12:00:00,49.1,24.0,30.43,NNE,22,0.0,0.0,37,0.00,,,0.00,LWC V2.11 B50,2013-01-16 20:00:00,
2013-01-16 12:05:00,48.7,43.8,29.80,ESE,116,0.0,0.6,85,0.00,,,0.00,WeatherCatV1.15B25,2013-01-16 20:05:00,
2013-01-16 12:10:00,53.7,22.2,30.40,West,270,0.0,4.0,29,0.00,,,0.00,LWC V2.11 B50,2013-01-16 20:10:00,
2013-01-16 12:15:00,48.7,43.8,29.80,ESE,116,0.0,0.6,85,0.00,,,0.00,WeatherCatV1.15B25,2013-01-16 20:15:00,
2013-01-16 12:20:00,53.7,22.2,30.40,West,270,0.0,4.0,29,0.00,,,0.00,LWC V2.11 B50,2013-01-16 20:20:00,
2013-01-16 12:25:00,48.7,43.8,29.80,ESE,116,0.0,0.6,85,0.00,,,0.00,WeatherCatV1.15B25,2013-01-16 20:25:00,
2013-01-16 12:30:00,53.7,22.2,30.40,West,270,0.0,4.0,29,0.00,,,0.00,LWC V2.11 B50,2013-01-16 20:30:00,
2013-01-16 12:35:00,48.7,43.8,29.80,ESE,116,0.0,0.6,85,0.00,,,0.00,WeatherCatV1.15B25,2013-01-16 20:35:00,
2013-01-16 12:40:00,53.7,22.2,30.40,West,270,0.0,4.0,29,0.00,,,0.00,LWC V2.11 B50,2013-01-16 20:40:00,
2013-01-16 12:45:00,48.7,43.8,29.80,ESE,116,0.0,0.6,85,0.00,,,0.00,WeatherCatV1.15B25,2013-01-16 20:45:00,
2013-01-16 12:50:00,53.7,22.2,30.40,West,270,0.0,4.0,29,0.00,,,0.00,LWC V2.11 B50,2013-01-16 20:50:00,
2013-01-16 12:55:00,48.7,43.8,29.80,ESE,116,0.0,0.6,85,0.00,,,0.00,WeatherCatV1.15B25,2013-01-16 20:55:00,
2013-01-16 13:00:00,53.7,22.2,30.40,West,270,0.0,4.0,29,0.00,,,0.00,LWC V2.11 B50,2013-01-16 21:00:00,
2013-01-16 13:05:00,48.7,43.8,29.80,ESE,116,0.0,0.6,85,0.00,,,0.00,WeatherCatV1.15B25,2013-01-16 21:05:00,
2013-01-16 13:10:00,55.4,24.5,30.36,SE,135,1.0,5.0,30,0.00,,,0.00,LWC V2.11 B50,2013-01-16 21:10:00,
2013-01-16 13:15:00,48.7,43.8,29.80,ESE,116,0.0,0.6,85,0.00,,,0.00,WeatherCatV1.15B25,2013-01-16 21:15:00,
2013-01-16 13:20:00,55.4,24.5,30.36,SE,135,1.0,5.0,30,0.00,,,0.00,LWC V2.11 B50,2013-01-16 21:20:00,
2013-01-16 13:25:00,48.7,43.8,29.80,ESE,116,0.0,0.6,85,0.00,,,0.00,WeatherCatV1.15B25,2013-01-16 21:25:00,
2013-01-16 13:30:00,55.4,24.5,30.36,SE,135,1.0,5.0,30,0.00,,,0.00,LWC V2.11 B50,2013-01-16 21:30:00,
2013-01-16 13:35:00,48.7,43.8,29.80,ESE,116,0.0,0.6,85,0.00,,,0.00,WeatherCatV1.15B25,2013-01-16 21:35:00,
2013-01-16 13:40:00,55.4,24.5,30.36,SE,135,1.0,5.0,30,0.00,,,0.00,LWC V2.11 B50,2013-01-16 21:40:00,
2013-01-16 13:45:00,48.7,43.8,29.80,ESE,116,0.0,0.6,85,0.00,,,0.00,WeatherCatV1.15B25,2013-01-16 21:45:00,
2013-01-16 13:50:00,55.4,24.5,30.36,SE,135,1.0,5.0,30,0.00,,,0.00,LWC V2.11 B50,2013-01-16 21:50:00,
2013-01-16 13:55:00,48.7,43.8,29.80,ESE,116,0.0,0.6,85,0.00,,,0.00,WeatherCatV1.15B25,2013-01-16 21:55:00,
2013-01-16 14:00:00,55.4,24.5,30.36,SE,135,1.0,5.0,30,0.00,,,0.00,LWC V2.11 B50,2013-01-16 22:00:00,
2013-01-16 14:05:00,48.7,43.8,29.80,ESE,116,0.0,0.6,85,0.00,,,0.00,WeatherCatV1.15B25,2013-01-16 22:05:00,
2013-01-16 14:10:00,56.7,28.7,30.34,WSW,248,1.0,5.0,34,0.00,,,0.00,LWC V2.11 B50,2013-01-16 22:10:00,
2013-01-16 14:15:00,48.7,43.8,29.80,ESE,116,0.0,0.6,85,0.00,,,0.00,WeatherCatV1.15B25,2013-01-16 22:15:00,
2013-01-16 14:20:00,56.7,28.7,30.34,WSW,248,1.0,5.0,34,0.00,,,0.00,LWC V2.11 B50,2013-01-16 22:20:00,
2013-01-16 14:25:00,48.7,43.8,29.80,ESE,116,0.0,0.6,85,0.00,,,0.00,WeatherCatV1.15B25,2013-01-16 22:25:00,
2013-01-16 14:30:00,56.7,28.7,30.34,WSW,248,1.0,5.0,34,0.00,,,0.00,LWC V2.11 B50,2013-01-16 22:30:00,
2013-01-16 14:35:00,48.7,43.8,29.80,ESE,116,0.0,0.6,85,0.00,,,0.00,WeatherCatV1.15B25,2013-01-16 22:35:00,
2013-01-16 14:40:00,56.7,28.7,30.34,WSW,248,1.0,5.0,34,0.00,,,0.00,LWC V2.11 B50,2013-01-16 22:40:00,
2013-01-16 14:45:00,48.7,43.8,29.80,ESE,116,0.0,0.6,85,0.00,,,0.00,WeatherCatV1.15B25,2013-01-16 22:45:00,
2013-01-16 14:50:00,56.7,28.7,30.34,WSW,248,1.0,5.0,34,0.00,,,0.00,LWC V2.11 B50,2013-01-16 22:50:00,
2013-01-16 14:55:00,48.7,43.8,29.80,ESE,116,0.0,0.6,85,0.00,,,0.00,WeatherCatV1.15B25,2013-01-16 22:55:00,
2013-01-16 15:00:00,56.7,28.7,30.34,WSW,248,1.0,5.0,34,0.00,,,0.00,LWC V2.11 B50,2013-01-16 23:00:00,
2013-01-16 15:05:00,48.7,43.8,29.80,ESE,116,0.0,0.6,85,0.00,,,0.00,WeatherCatV1.15B25,2013-01-16 23:05:00,
2013-01-16 15:10:00,54.5,30.7,30.33,West,270,1.0,3.0,40,0.00,,,0.00,LWC V2.11 B50,2013-01-16 23:10:00,
2013-01-16 15:15:00,48.7,43.8,29.80,ESE,116,0.0,0.6,85,0.00,,,0.00,WeatherCatV1.15B25,2013-01-16 23:15:00,
2013-01-16 15:20:00,54.5,30.7,30.33,West,270,1.0,3.0,40,0.00,,,0.00,LWC V2.11 B50,2013-01-16 23:20:00,
2013-01-16 15:25:00,48.7,43.8,29.80,ESE,116,0.0,0.6,85,0.00,,,0.00,WeatherCatV1.15B25,2013-01-16 23:25:00,
2013-01-16 15:30:00,54.5,30.7,30.33,West,270,1.0,3.0,40,0.00,,,0.00,LWC V2.11 B50,2013-01-16 23:30:00,
2013-01-16 15:35:00,48.7,43.8,29.80,ESE,116,0.0,0.6,85,0.00,,,0.00,WeatherCatV1.15B25,2013-01-16 23:35:00,
2013-01-16 15:40:00,54.5,30.7,30.33,West,270,1.0,3.0,40,0.00,,,0.00,LWC V2.11 B50,2013-01-16 23:40:00,
2013-01-16 15:45:00,48.7,43.8,29.80,ESE,116,0.0,0.6,85,0.00,,,0.00,WeatherCatV1.15B25,2013-01-16 23:45:00,
2013-01-16 15:50:00,54.5,30.7,30.33,West,270,1.0,3.0,40,0.00,,,0.00,LWC V2.11 B50,2013-01-16 23:50:00,
2013-01-16 15:55:00,48.7,43.8,29.80,ESE,116,0.0,0.6,85,0.00,,,0.00,WeatherCatV1.15B25,2013-01-16 23:55:00,
2013-01-16 16:00:00,53.2,30.7,30.32,WSW,248,0.0,4.0,42,0.00,,,0.00,LWC V2.11 B50,2013-01-17 00:00:00,
2013-01-16 16:05:00,48.7,43.8,29.80,ESE,116,0.0,0.6,85,0.00,,,0.00,WeatherCatV1.15B25,2013-01-17 00:05:00,
2013-01-16 16:10:00,53.2,30.7,30.32,WSW,248,0.0,4.0,42,0.00,,,0.00,LWC V2.11 B50,2013-01-17 00:10:00,
2013-01-16 16:15:00,48.7,43.8,29.80,ESE,116,0.0,0.6,85,0.00,,,0.00,WeatherCatV1.15B25,2013-01-17 00:15:00,
2013-01-16 16:20:00,53.2,30.7,30.32,WSW,248,0.0,4.0,42,0.00,,,0.00,LWC V2.11 B50,2013-01-17 00:20:00,
2013-01-16 16:25:00,48.7,43.8,29.80,ESE,116,0.0,0.6,85,0.00,,,0.00,WeatherCatV1.15B25,2013-01-17 00:25:00,
2013-01-16 16:30:00,53.2,30.7,30.32,WSW,248,0.0,4.0,42,0.00,,,0.00,LWC V2.11 B50,2013-01-17 00:30:00,
2013-01-16 16:35:00,48.7,43.8,29.80,ESE,116,0.0,0.6,85,0.00,,,0.00,WeatherCatV1.15B25,2013-01-17 00:35:00,
2013-01-16 16:40:00,53.2,30.7,30.32,WSW,248,0.0,4.0,42,0.00,,,0.00,LWC V2.11 B50,2013-01-17 00:40:00,
2013-01-16 16:45:00,48.7,43.8,29.80,ESE,116,0.0,0.6,85,0.00,,,0.00,WeatherCatV1.15B25,2013-01-17 00:45:00,
2013-01-16 16:50:00,53.2,30.7,30.32,WSW,248,0.0,4.0,42,0.00,,,0.00,LWC V2.11 B50,2013-01-17 00:50:00,
2013-01-16 16:55:00,48.7,43.8,29.80,ESE,116,0.0,0.6,85,0.00,,,0.00,WeatherCatV1.15B25,2013-01-17 00:55:00,
2013-01-16 17:00:00,49.4,32.0,30.31,SE,135,0.0,2.0,51,0.00,,,0.00,LWC V2.11 B50,2013-01-17 01:00:00,
2013-01-16 17:05:00,48.7,43.8,29.80,ESE,116,0.0,0.6,85,0.00,,,0.00,WeatherCatV1.15B25,2013-01-17 01:05:00,
2013-01-16 17:10:00,49.4,32.0,30.31,SE,135,0.0,2.0,51,0.00,,,0.00,LWC V2.11 B50,2013-01-17 01:10:00,
2013-01-16 17:15:00,48.7,43.8,29.80,ESE,116,0.0,0.6,85,0.00,,,0.00,WeatherCatV1.15B25,2013-01-17 01:15:00,
2013-01-16 17:20:00,49.4,32.0,30.31,SE,135,0.0,2.0,51,0.00,,,0.00,LWC V2.11 B50,2013-01-17 01:20:00,
2013-01-16 17:25:00,48.7,43.8,29.80,ESE,116,0.0,0.6,85,0.00,,,0.00,WeatherCatV1.15B25,2013-01-17 01:25:00,
2013-01-16 17:30:00,49.4,32.0,30.31,SE,135,0.0,2.0,51,0.00,,,0.00,LWC V2.11 B50,2013-01-17 01:30:00,
2013-01-16 17:35:00,48.7,43.8,29.80,ESE,116,0.0,0.6,85,0.00,,,0.00,WeatherCatV1.15B25,2013-01-17 01:35:00,
2013-01-16 17:40:00,49.4,32.0,30.31,SE,135,0.0,2.0,51,0.00,,,0.00,LWC V2.11 B50,2013-01-17 01:40:00,
2013-01-16 17:45:00,48.7,43.8,29.80,ESE,116,0.0,0.6,85,0.00,,,0.00,WeatherCatV1.15B25,2013-01-17 01:45:00,
2013-01-16 17:50:00,49.4,32.0,30.31,SE,135,0.0,2.0,51,0.00,,,0.00,LWC V2.11 B50,2013-01-17 01:50:00,
2013-01-16 17:55:00,48.7,43.8,29.80,ESE,116,0.0,0.6,85,0.00,,,0.00,WeatherCatV1.15B25,2013-01-17 01:55:00,
2013-01-16 18:00:00,49.4,32.0,30.31,SE,135,0.0,2.0,51,0.00,,,0.00,LWC V2.11 B50,2013-01-17 02:00:00,
2013-01-16 18:05:00,48.7,43.8,29.80,ESE,116,0.0,0.6,85,0.00,,,0.00,WeatherCatV1.15B25,2013-01-17 02:05:00,
2013-01-16 18:10:00,44.1,31.1,30.32,SE,135,0.0,0.0,60,0.00,,,0.00,LWC V2.11 B50,2013-01-17 02:10:00,
2013-01-16 18:15:00,48.7,43.8,29.80,ESE,116,0.0,0.6,85,0.00,,,0.00,WeatherCatV1.15B25,2013-01-17 02:15:00,
2013-01-16 18:20:00,44.1,31.1,30.32,SE,135,0.0,0.0,60,0.00,,,0.00,LWC V2.11 B50,2013-01-17 02:20:00,
2013-01-16 18:25:00,48.7,43.8,29.80,ESE,116,0.0,0.6,85,0.00,,,0.00,WeatherCatV1.15B25,2013-01-17 02:25:00,
2013-01-16 18:30:00,44.1,31.1,30.32,SE,135,0.0,0.0,60,0.00,,,0.00,LWC V2.11 B50,2013-01-17 02:30:00,
2013-01-16 18:35:00,48.7,43.8,29.80,ESE,116,0.0,0.6,85,0.00,,,0.00,WeatherCatV1.15B25,2013-01-17 02:35:00,
2013-01-16 18:40:00,44.1,31.1,30.32,SE,135,0.0,0.0,60,0.00,,,0.00,LWC V2.11 B50,2013-01-17 02:40:00,
2013-01-16 18:45:00,48.7,43.8,29.80,ESE,116,0.0,0.6,85,0.00,,,0.00,WeatherCatV1.15B25,2013-01-17 02:45:00,
2013-01-16 18:50:00,44.1,31.1,30.32,SE,135,0.0,0.0,60,0.00,,,0.00,LWC V2.11 B50,2013-01-17 02:50:00,
2013-01-16 18:55:00,48.7,43.8,29.80,ESE,116,0.0,0.6,85,0.00,,,0.00,WeatherCatV1.15B25,2013-01-17 02:55:00,
2013-01-16 19:00:00,44.1,31.1,30.32,SE,135,0.0,0.0,60,0.00,,,0.00,LWC V2.11 B50,2013-01-17 03:00:00,
2013-01-16 19:05:00,48.7,43.8,29.80,ESE,116,0.0,0.6,85,0.00,,,0.00,WeatherCatV1.15B25,2013-01-17 03:05:00,
2013-01-16 19:10:00,40.2,30.8,30.32,SE,135,0.0,0.0,69,0.00,,,0.00,LWC V2.11 B50,2013-01-17 03:10:00,
2013-01-16 19:15:00,48.7,43.8,29.80,ESE,116,0.0,0.6,85,0.00,,,0.00,WeatherCatV1.15B25,2013-01-17 03:15:00,
2013-01-16 19:20:00,40.2,30.8,30.32,SE,135,0.0,0.0,69,0.00,,,0.00,LWC V2.11 B50,2013-01-17 03:20:00,
2013-01-16 19:25:00,48.7,43.8,29.80,ESE,116,0.0,0.6,85,0.00,,,0.00,WeatherCatV1.15B25,2013-01-17 03:25:00,
2013-01-16 19:30:00,40.2,30.8,30.32,SE,135,0.0,0.0,69,0.00,,,0.00,LWC V2.11 B50,2013-01-17 03:30:00,
2013-01-16 19:35:00,48.7,43.8,29.80,ESE,116,0.0,0.6,85,0.00,,,0.00,WeatherCatV1.15B25,2013-01-17 03:35:00,
2013-01-16 19:40:00,40.2,30.8,30.32,SE,135,0.0,0.0,69,0.00,,,0.00,LWC V2.11 B50,2013-01-17 03:40:00,
2013-01-16 19:45:00,48.7,43.8,29.80,ESE,116,0.0,0.6,85,0.00,,,0.00,WeatherCatV1.15B25,2013-01-17 03:45:00,
2013-01-16 19:50:00,40.2,30.8,30.32,SE,135,0.0,0.0,69,0.00,,,0.00,LWC V2.11 B50,2013-01-17 03:50:00,
2013-01-16 19:55:00,48.7,43.8,29.80,ESE,116,0.0,0.6,85,0.00,,,0.00,WeatherCatV1.15B25,2013-01-17 03:55:00,
2013-01-16 20:00:00,40.2,30.8,30.32,SE,135,0.0,0.0,69,0.00,,,0.00,LWC V2.11 B50,2013-01-17 04:00:00,
2013-01-16 20:05:00,48.7,43.8,29.80,ESE,116,0.0,0.6,85,0.00,,,0.00,WeatherCatV1.15B25,2013-01-17 04:05:00,
2013-01-16 20:10:00,38.0,29.8,30.32,SE,135,0.0,0.0,72,0.00,,,0.00,LWC V2.11 B50,2013-01-17 04:10:00,
2013-01-16 20:15:00,48.7,43.8,29.80,ESE,116,0.0,0.6,85,0.00,,,0.00,WeatherCatV1.15B25,2013-01-17 04:15:00,
2013-01-16 20:20:00,38.0,29.8,30.32,SE,135,0.0,0.0,72,0.00,,,0.00,LWC V2.11 B50,2013-01-17 04:20:00,
2013-01-16 20:25:00,48.7,43.8,29.80,ESE,116,0.0,0.6,85,0.00,,,0.00,WeatherCatV1.15B25,2013-01-17 04:25:00,
2013-01-16 20:30:00,38.0,29.8,30.32,SE,135,0.0,0.0,72,0.00,,,0.00,LWC V2.11 B50,2013-01-17 04:30:00,
2013-01-16 20:35:00,48.7,43.8,29.80,ESE,116,0.0,0.6,85,0.00,,,0.00,WeatherCatV1.15B25,2013-01-17 04:35:00,
2013-01-16 20:40:00,38.0,29.8,30.32,SE,135,0.0,0.0,72,0.00,,,0.00,LWC V2.11 B50,2013-01-17 04:40:00,
2013-01-16 20:45:00,48.7,43.8,29.80,ESE,116,0.0,0.6,85,0.00,,,0.00,WeatherCatV1.15B25,2013-01-17 04:45:00,
2013-01-16 20:50:00,38.0,29.8,30.32,SE,135,0.0,0.0,72,0.00,,,0.00,LWC V2.11 B50,2013-01-17 04:50:00,
2013-01-16 20:55:00,48.7,43.8,29.80,ESE,116,0.0,0.6,85,0.00,,,0.00,WeatherCatV1.15B25,2013-01-17 04:55:00,
2013-01-16 21:00:00,38.0,29.8,30.32,SE,135,0.0,0.0,72,0.00,,,0.00,LWC V2.11 B50,2013-01-17 05:00:00,
2013-01-16 21:05:00,48.7,43.8,29.80,ESE,116,0.0,0.6,85,0.00,,,0.00,WeatherCatV1.15B25,2013-01-17 05:05:00,
2013-01-16 21:10:00,35.9,29.4,30.31,SE,135,0.0,0.0,77,0.00,,,0.00,LWC V2.11 B50,2013-01-17 05:10:00,
2013-01-16 21:15:00,48.7,43.8,29.80,ESE,116,0.0,0.6,85,0.00,,,0.00,WeatherCatV1.15B25,2013-01-17 05:15:00,
2013-01-16 21:20:00,35.9,29.4,30.31,SE,135,0.0,0.0,77,0.00,,,0.00,LWC V2.11 B50,2013-01-17 05:20:00,
2013-01-16 21:25:00,48.7,43.8,29.80,ESE,116,0.0,0.6,85,0.00,,,0.00,WeatherCatV1.15B25,2013-01-17 05:25:00,
2013-01-16 21:30:00,35.9,29.4,30.31,SE,135,0.0,0.0,77,0.00,,,0.00,LWC V2.11 B50,2013-01-17 05:30:00,
2013-01-16 21:35:00,48.7,43.8,29.80,ESE,116,0.0,0.6,85,0.00,,,0.00,WeatherCatV1.15B25,2013-01-17 05:35:00,
2013-01-16 21:40:00,35.9,29.4,30.31,SE,135,0.0,0.0,77,0.00,,,0.00,LWC V2.11 B50,2013-01-17 05:40:00,
2013-01-16 21:45:00,48.7,43.8,29.80,ESE,116,0.0,0.6,85,0.00,,,0.00,WeatherCatV1.15B25,2013-01-17 05:45:00,
2013-01-16 21:50:00,35.9,29.4,30.31,SE,135,0.0,0.0,77,0.00,,,0.00,LWC V2.11 B50,2013-01-17 05:50:00,
2013-01-16 21:55:00,48.7,43.8,29.80,ESE,116,0.0,0.6,85,0.00,,,0.00,WeatherCatV1.15B25,2013-01-17 05:55:00,
2013-01-16 22:00:00,35.9,29.4,30.31,SE,135,0.0,0.0,77,0.00,,,0.00,LWC V2.11 B50,2013-01-17 06:00:00,
2013-01-16 22:05:00,48.7,43.8,29.80,ESE,116,0.0,0.6,85,0.00,,,0.00,WeatherCatV1.15B25,2013-01-17 06:05:00,
2013-01-16 22:10:00,35.7,29.2,30.30,SE,135,0.0,0.0,77,0.00,,,0.00,LWC V2.11 B50,2013-01-17 06:10:00,
2013-01-16 22:15:00,48.7,43.8,29.80,ESE,116,0.0,0.6,85,0.00,,,0.00,WeatherCatV1.15B25,2013-01-17 06:15:00,
2013-01-16 22:20:00,35.7,29.2,30.30,SE,135,0.0,0.0,77,0.00,,,0.00,LWC V2.11 B50,2013-01-17 06:20:00,
2013-01-16 22:25:00,48.7,43.8,29.80,ESE,116,0.0,0.6,85,0.00,,,0.00,WeatherCatV1.15B25,2013-01-17 06:25:00,
2013-01-16 22:30:00,35.7,29.2,30.30,SE,135,0.0,0.0,77,0.00,,,0.00,LWC V2.11 B50,2013-01-17 06:30:00,
2013-01-16 22:35:00,48.7,43.8,29.80,ESE,116,0.0,0.6,85,0.00,,,0.00,WeatherCatV1.15B25,2013-01-17 06:35:00,
2013-01-16 22:40:00,35.7,29.2,30.30,SE,135,0.0,0.0,77,0.00,,,0.00,LWC V2.11 B50,2013-01-17 06:40:00,
2013-01-16 22:45:00,48.7,43.8,29.80,ESE,116,0.0,0.6,85,0.00,,,0.00,WeatherCatV1.15B25,2013-01-17 06:45:00,
2013-01-16 22:50:00,35.7,29.2,30.30,SE,135,0.0,0.0,77,0.00,,,0.00,LWC V2.11 B50,2013-01-17 06:50:00,
2013-01-16 22:55:00,48.7,43.8,29.80,ESE,116,0.0,0.6,85,0.00,,,0.00,WeatherCatV1.15B25,2013-01-17 06:55:00,
2013-01-16 23:00:00,35.7,29.2,30.30,SE,135,0.0,0.0,77,0.00,,,0.00,LWC V2.11 B50,2013-01-17 07:00:00,
2013-01-16 23:05:00,48.7,43.8,29.80,ESE,116,0.0,0.6,85,0.00,,,0.00,WeatherCatV1.15B25,2013-01-17 07:05:00,
2013-01-16 23:10:00,35.0,27.6,30.30,SE,135,0.0,0.0,74,0.00,,,0.00,LWC V2.11 B50,2013-01-17 07:10:00,
2013-01-16 23:15:00,48.7,43.8,29.80,ESE,116,0.0,0.6,85,0.00,,,0.00,WeatherCatV1.15B25,2013-01-17 07:15:00,
2013-01-16 23:20:00,35.0,27.6,30.30,SE,135,0.0,0.0,74,0.00,,,0.00,LWC V2.11 B50,2013-01-17 07:20:00,
2013-01-16 23:25:00,48.7,43.8,29.80,ESE,116,0.0,0.6,85,0.00,,,0.00,WeatherCatV1.15B25,2013-01-17 07:25:00,
2013-01-16 23:30:00,35.0,27.6,30.30,SE,135,0.0,0.0,74,0.00,,,0.00,LWC V2.11 B50,2013-01-17 07:30:00,
2013-01-16 23:35:00,48.7,43.8,29.80,ESE,116,0.0,0.6,85,0.00,,,0.00,WeatherCatV1.15B25,2013-01-17 07:35:00,
2013-01-16 23:40:00,35.0,27.6,30.30,SE,135,0.0,0.0,74,0.00,,,0.00,LWC V2.11 B50,2013-01-17 07:40:00,
2013-01-16 23:45:00,48.7,43.8,29.80,ESE,116,0.0,0.6,85,0.00,,,0.00,WeatherCatV1.15B25,2013-01-17 07:45:00,
2013-01-16 23:50:00,35.0,27.6,30.30,SE,135,0.0,0.0,74,0.00,,,0.00,LWC V2.11 B50,2013-01-17 07:50:00,
2013-01-16 23:55:00,48.7,43.8,29.80,ESE,116,0.0,0.6,85,0.00,,,0.00,WeatherCatV1.15B25,2013-01-17 07:55:00,